This demonstration page uses our WeatherBlox Daily Observations layout. Learn more.

Left ArrowRight Arrow

38.89511, -77.03637

Hourly Observations for May 29, 2018

Temp ( °F °C ) Dew Point ( °F °C ) Humidity (%) Winds ( mph kmh ) Pressure ( in mb ) Visibility ( mi km ) Precip ( " mm )
12:52 am 00:52 Cloudy with Mist and Fog 69 20.6 66 18.9 90 90 E 3 6 30.03 1017 5 8 0.00 0.00
1:50 am 01:50 Cloudy with Mist and Fog 70 21 66 19 88 88 ESE 3 6 30.03 1017 3 5 0.00 0.00
1:52 am 01:52 Cloudy with Mist and Fog 69 20.6 66 18.9 90 90 ESE 3 6 30.02 1017 3 5 0.00 0.00
2:52 am 02:52 Cloudy with Mist and Fog 70 21.1 66 18.9 87 87 Calm 30.01 1016 5 8 0.00 0.00
2:59 am 02:59 Cloudy with Mist and Fog 70 21.1 66 18.9 87 87 Calm 30.00 1016 5 8 0.00 0.00
3:52 am 03:52 Cloudy with Mist and Fog 70 21.1 67 19.4 90 90 Calm 30.01 1016 4 6 0.00 0.00
4:06 am 04:06 Cloudy with Mist and Fog 70 21.1 67 19.4 90 90 Calm 30.00 1016 3 4 0.00 0.00
4:26 am 04:26 Cloudy with Mist and Fog 69 20.6 67 19.4 93 93 Calm 30.00 1016 1 2 0.00 0.00
4:38 am 04:38 Mostly Cloudy with Fog 69 20.6 67 19.4 93 93 Calm 30.00 1016 1 1 0.00 0.00
4:52 am 04:52 Mostly Cloudy with Fog 69 20.6 67 19.4 93 93 Calm 30.00 1016 0 0 0.00 0.00
5:52 am 05:52 Mostly Cloudy with Fog 70 21.1 67 19.4 90 90 Calm 30.00 1016 1 1 0.00 0.00
6:04 am 06:04 Cloudy with Mist and Fog 70 21.1 68 20 93 93 Calm 30.00 1016 1 2 0.00 0.00
6:24 am 06:24 Cloudy with Mist and Fog 70 21.1 68 20 93 93 Calm 30.00 1016 3 4 0.00 0.00
6:29 am 06:29 Cloudy with Mist and Fog 70 21.1 67 19.4 90 90 SW 5 7 30.00 1016 3 4 0.00 0.00
6:52 am 06:52 Cloudy with Mist and Fog 70 21.1 68 20 93 93 Calm 30.01 1016 3 4 0.00 0.00
7:31 am 07:31 Cloudy with Mist and Fog 71 21.7 67 19.4 87 87 Calm 30.00 1016 3 5 0.00 0.00
7:52 am 07:52 Cloudy with Mist and Fog 71 21.7 68 20 90 90 SE 3 6 30.01 1016 3 5 0.00 0.00
8:43 am 08:43 Cloudy with Haze 73 22.8 68 20 84 84 Calm 30.03 1017 5 8 0.00 0.00
8:52 am 08:52 Cloudy with Mist and Fog 72 22.2 68 20 87 87 S 5 7 30.03 1017 5 8 0.00 0.00
9:48 am 09:48 Cloudy 73 23 68 20 83 83 SE 5 7 30.03 1017 7 11 0.00 0.00
9:52 am 09:52 Cloudy 74 23.3 68 20 82 82 SE 3 6 30.02 1017 7 11 0.00 0.00
10:52 am 10:52 Cloudy 74 23.3 68 20 82 82 S 6 9 30.03 1017 10 16 0.00 0.00
11:21 am 11:21 Cloudy 76 24.4 69 20.6 79 79 S 6 9 30.03 1017 10 16 0.00 0.00
11:52 am 11:52 Cloudy 77 25 69 20.6 77 77 S 6 9 30.03 1017 10 16 0.00 0.00
12:45 pm 12:45 Cloudy 78 25.6 70 21.1 76 76 S 8 13 30.03 1017 10 16 0.00 0.00
12:52 pm 12:52 Cloudy 78 25.6 69 20.6 74 74 S 10 17 30.03 1017 10 16 0.00 0.00
1:52 pm 13:52 Cloudy 78 25.6 69 20.6 74 74 S 9 15 30.01 1016 10 16 0.00 0.00
2:52 pm 14:52 Cloudy 79 26.1 70 21.1 74 74 SSE 6 9 30.00 1016 10 16 0.00 0.00
3:52 pm 15:52 Mostly Cloudy 82 27.8 69 20.6 65 65 VRB 3 6 29.98 1015 10 16 0.00 0.00
4:52 pm 16:52 Mostly Cloudy 80 26.7 68 20 67 67 SSE 3 6 29.98 1015 10 16 0.00 0.00
5:52 pm 17:52 Mostly Cloudy 82 27.8 68 20 63 63 S 3 6 29.97 1015 10 16 0.00 0.00
6:52 pm 18:52 Mostly Cloudy 80 26.7 70 21.1 71 71 S 7 11 29.98 1015 10 16 0.00 0.00
7:52 pm 19:52 Mostly Cloudy 79 26.1 71 21.7 77 77 SSE 9 15 29.98 1015 10 16 0.00 0.00
8:52 pm 20:52 Mostly Cloudy 77 25 71 21.7 82 82 SE 8 13 29.99 1016 10 16 0.00 0.00
9:52 pm 21:52 Mostly Cloudy 76 24.4 71 21.7 85 85 SSE 5 7 30.01 1016 10 16 0.00 0.00
10:52 pm 22:52 Mostly Cloudy 75 23.9 70 21.1 84 84 SSE 7 11 30.01 1016 10 16 0.00 0.00
11:52 pm 23:52 Mostly Cloudy 74 23.3 70 21.1 88 88 S 5 7 30.01 1016 10 16 0.00 0.00

Powered by AerisWeather